IRIDIUM 148

Last updated on Tue Sep 22 2026 00:03:21 GMT+0000 (Coordinated Universal Time)

1 43255U 18030G 26264.28281669 .00000111 00000+0 32489-4 0 9995 2 43255 86.3918 250.2626 0002256 90.3701 269.7753 14.34217740443940
UTC large
Height (km)
Speed (km/s)
/
Latitude / Longitude
Inclination (degrees)
Orbital Period (minutes)
Azimuth
Elevation
Range (km)
Doppler Factor

Next 0 passes for location: London (51.5072 / 0.1276)

No passes found over London.
IRIDIUM 148